Starlink 31940

operational
NORAD ID: 59873 Int'l Des: 2024-098 Owner: SPXS Country: US Constellation: starlink
LEOCIRCULAR

About Starlink 31940

Description loading...

Live Position

Loading 3D Globe...

Upcoming Passes

Altitude History

Altitude vs Time

uPlot chart will show altitude changes over time

Two-Line Element Set

1 59873U 24098R 25257.20804080 .00000505 00000-0 27884-4 0 9991
2 59873 43.0006 187.0521 0000912 260.9016 99.1732 15.27579724 74941
Epoch: Sep 14, 2025 • Age: 29 hours

Current Status

Altitude 485.0 km
Velocity 7.63 km/s
Sub-Earth Point 34.97°N, 170.78°E
Launch Date May 24, 2024
Age 1.3 years
Type internet

Technical Details

Classification Payload
Mass 730.00 kg
Dry Mass 700.00 kg
Total Mass 730.00 kg
Length 0.30 m
Diameter 4.10 m
Span 29.00 m
Shape Box + pan
Manufacturer SPXS
Bus Type Starlink V2M
Phase Status In Orbit
Owner/State SPXS/US

Large Constellations

Loading constellations...